time,lasttime,lat,lng,speed,course,altitude,comment
2010-08-18 12:52:52,2010-08-18 12:52:52,40.19100,-110.38600,4,194,1838.00,""
2010-08-18 12:59:00,2010-08-18 12:59:00,40.19100,-110.38533,2,88,2123.00,""
2010-08-18 12:59:40,2010-08-18 12:59:40,46.64333,-104.35800,1424,319,-2753.00,""
2010-08-18 13:00:06,2010-08-18 13:00:06,40.19183,-110.38333,193,283,2682.00,""
2010-08-18 13:01:26,2010-08-18 13:01:26,40.19583,-110.37483,57,95,3131.00,""
2010-08-18 13:32:21,2010-08-18 13:32:21,40.28650,-109.96600,31,80,17316.00,""
2010-08-18 13:32:34,2010-08-18 13:32:34,40.28717,-109.96483,24,90,17427.00,""
2010-08-18 13:32:47,2010-08-18 13:32:47,40.28800,-109.96433,41,24,17553.00,""
2010-08-18 13:33:01,2010-08-18 13:33:01,40.28833,-109.96367,28,93,17663.00,""
2010-08-18 13:33:14,2010-08-18 13:33:14,40.28783,-109.96217,13,121,17769.00,""
2010-08-18 13:33:27,2010-08-18 13:33:27,40.28683,-109.96067,52,143,17889.00,""
2010-08-18 13:33:40,2010-08-18 13:33:40,40.28583,-109.95933,44,152,17987.00,""
2010-08-18 13:33:53,2010-08-18 13:33:53,40.28567,-109.95850,28,102,18070.00,""
2010-08-18 13:34:06,2010-08-18 13:34:06,40.28500,-109.95783,24,128,18166.00,""
2010-08-18 13:34:20,2010-08-18 13:34:20,40.28450,-109.95717,28,153,18245.00,""
2010-08-18 13:34:33,2010-08-18 13:34:33,40.28383,-109.95717,15,209,18335.00,""
2010-08-18 13:34:46,2010-08-18 13:34:46,40.28350,-109.95733,6,201,18432.00,""
2010-08-18 13:34:59,2010-08-18 13:34:59,40.28300,-109.95767,19,221,18506.00,""
2010-08-18 13:35:13,2010-08-18 13:35:26,40.28267,-109.95833,2,342,18636.00,""
2010-08-18 13:35:53,2010-08-18 13:35:53,40.28250,-109.95800,24,143,18829.00,""
2010-08-18 13:36:05,2010-08-18 13:36:05,40.28217,-109.95717,6,139,18919.00,""
2010-08-18 13:36:19,2010-08-18 13:36:19,40.28167,-109.95700,30,171,18994.00,""
2010-08-18 13:36:32,2010-08-18 13:36:32,40.28067,-109.95650,39,168,19089.00,""
2010-08-18 13:36:45,2010-08-18 13:36:45,40.27983,-109.95633,35,169,19168.00,""
2010-08-18 13:36:58,2010-08-18 13:36:58,40.27933,-109.95667,37,228,19274.00,""
2010-08-18 13:37:12,2010-08-18 13:37:12,40.27900,-109.95700,35,234,19362.00,""
2010-08-18 13:37:25,2010-08-18 13:37:25,40.27850,-109.95767,26,229,19439.00,""
2010-08-18 13:37:38,2010-08-18 13:37:38,40.27833,-109.95833,17,202,19540.00,""
2010-08-18 13:37:51,2010-08-18 13:37:51,40.27833,-109.95883,15,250,19613.00,""
2010-08-18 13:38:04,2010-08-18 13:38:04,40.27817,-109.95933,9,235,19751.00,""
2010-08-18 13:38:18,2010-08-18 13:38:18,40.27933,-109.95950,6,328,19873.00,""
2010-08-18 13:38:31,2010-08-18 13:38:31,40.27967,-109.96017,28,297,19952.00,""
2010-08-18 13:38:44,2010-08-18 13:38:44,40.27983,-109.96083,19,287,20028.00,""
2010-08-18 13:38:57,2010-08-18 13:38:57,40.28000,-109.96150,33,270,20097.00,""
2010-08-18 13:39:11,2010-08-18 13:39:11,40.27967,-109.96217,24,240,20169.00,""
2010-08-18 13:39:24,2010-08-18 13:39:24,40.27967,-109.96333,39,289,20239.00,""
2010-08-18 13:39:37,2010-08-18 13:39:37,40.27983,-109.96483,41,292,20360.00,""
2010-08-18 13:39:50,2010-08-18 13:39:50,40.28017,-109.96467,28,309,20415.00,""
2010-08-18 13:40:04,2010-08-18 13:40:04,40.28050,-109.96533,30,300,20522.00,""
2010-08-18 13:40:17,2010-08-18 13:40:17,40.28083,-109.96567,9,255,20563.00,""
2010-08-18 13:40:30,2010-08-18 13:40:30,40.28133,-109.96617,20,334,20646.00,""
2010-08-18 13:40:43,2010-08-18 13:40:43,40.28167,-109.96667,20,307,20723.00,""
2010-08-18 13:40:57,2010-08-18 13:40:57,40.28233,-109.96717,35,347,20798.00,""
2010-08-18 13:41:23,2010-08-18 13:41:23,40.28350,-109.96767,17,342,20942.00,""
2010-08-18 13:41:37,2010-08-18 13:41:37,40.28417,-109.96800,48,337,21051.00,""
2010-08-18 13:41:49,2010-08-18 13:41:49,40.28483,-109.96833,35,325,21136.00,""
2010-08-18 13:42:02,2010-08-18 13:42:02,40.28500,-109.96900,37,230,21237.00,""
2010-08-18 13:42:16,2010-08-18 13:42:16,40.28517,-109.96967,22,284,21312.00,""
2010-08-18 13:42:29,2010-08-18 13:42:29,40.28500,-109.97017,30,247,21406.00,""
2010-08-18 13:42:42,2010-08-18 13:42:42,40.28500,-109.97067,31,255,21501.00,""
2010-08-18 13:42:56,2010-08-18 13:42:56,40.28467,-109.97133,41,278,21605.00,""
2010-08-18 13:43:09,2010-08-18 13:43:09,40.28467,-109.97183,19,279,21654.00,""
2010-08-18 13:43:22,2010-08-18 13:43:22,40.28467,-109.97300,17,266,21740.00,""
2010-08-18 13:43:35,2010-08-18 13:43:35,40.28467,-109.97433,30,268,21829.00,""
2010-08-18 13:43:48,2010-08-18 13:43:48,40.28500,-109.97533,20,269,21928.00,""
2010-08-18 13:44:01,2010-08-18 13:44:01,40.28500,-109.97583,11,245,22026.00,""
2010-08-18 13:44:41,2010-08-18 13:44:41,40.28450,-109.97717,15,214,22254.00,""
2010-08-18 13:44:55,2010-08-18 13:44:55,40.28417,-109.97800,28,248,22343.00,""
2010-08-18 13:45:08,2010-08-18 13:45:08,40.28433,-109.97867,19,241,22412.00,""
2010-08-18 13:45:21,2010-08-18 13:45:21,40.28400,-109.97917,28,203,22489.00,""
2010-08-18 13:45:34,2010-08-18 13:45:34,40.28333,-109.97967,37,199,22568.00,""
2010-08-18 13:45:48,2010-08-18 13:45:48,40.28233,-109.97717,346,178,22904.00,""
2010-08-18 13:46:00,2010-08-18 13:46:00,40.28150,-109.98200,56,217,22750.00,""
2010-08-18 13:46:14,2010-08-18 13:46:14,40.28133,-109.98250,26,244,22837.00,""
2010-08-18 13:46:27,2010-08-18 13:46:27,40.28133,-109.98300,15,253,22914.00,""
2010-08-18 13:46:40,2010-08-18 13:46:40,40.28083,-109.98367,17,212,22978.00,""
2010-08-18 13:46:54,2010-08-18 13:46:54,40.28017,-109.98467,44,230,23050.00,""
2010-08-18 13:47:07,2010-08-18 13:47:07,40.27933,-109.98600,48,240,23123.00,""
2010-08-18 13:47:33,2010-08-18 13:47:33,40.27800,-109.98967,59,247,23284.00,""
2010-08-18 13:47:47,2010-08-18 13:47:47,40.27767,-109.99133,56,253,23376.00,""
2010-08-18 13:48:13,2010-08-18 13:48:13,40.27867,-109.99450,48,282,23570.00,""
2010-08-18 13:48:26,2010-08-18 13:48:26,40.27700,-109.99450,815,115,23465.00,""
2010-08-18 13:48:39,2010-08-18 13:48:39,40.27517,-109.99550,26,279,23609.00,""
2010-08-18 13:49:19,2010-08-18 13:49:19,40.27633,-110.00067,39,259,23965.00,""
2010-08-18 13:49:32,2010-08-18 13:49:32,40.27617,-110.00200,30,252,24067.00,""
2010-08-18 13:49:45,2010-08-18 13:49:45,40.27600,-110.00350,33,270,24156.00,""
2010-08-18 13:50:12,2010-08-18 13:50:12,40.27550,-110.00633,35,257,24328.00,""
2010-08-18 13:50:38,2010-08-18 13:50:38,40.27500,-110.00983,46,264,24496.00,""
2010-08-18 13:51:05,2010-08-18 13:51:05,40.27483,-110.01300,33,245,24640.00,""
2010-08-18 13:51:18,2010-08-18 13:51:18,40.27500,-110.01450,30,250,24739.00,""
2010-08-18 13:51:31,2010-08-18 13:51:31,40.27483,-110.01633,33,267,24827.00,""
2010-08-18 13:51:44,2010-08-18 13:51:44,40.27450,-110.01800,39,272,24899.00,""
2010-08-18 13:51:57,2010-08-18 13:51:57,40.27400,-110.02000,50,258,24998.00,""
2010-08-18 13:52:11,2010-08-18 13:52:11,40.27367,-110.02250,65,256,25078.00,""
2010-08-18 13:52:24,2010-08-18 13:52:24,40.27333,-110.02433,52,267,25163.00,""
2010-08-18 13:52:51,2010-08-18 13:52:51,40.27333,-110.02733,41,251,25326.00,""
2010-08-18 13:53:04,2010-08-18 13:53:04,40.27300,-110.02900,35,245,25410.00,""
2010-08-18 13:53:17,2010-08-18 13:53:17,40.27283,-110.03133,39,259,25497.00,""
2010-08-18 13:53:30,2010-08-18 13:53:30,40.27283,-110.03350,41,258,25593.00,""
2010-08-18 13:53:43,2010-08-18 13:53:43,40.27300,-110.03517,52,284,25676.00,""
2010-08-18 13:53:56,2010-08-18 13:53:56,40.27317,-110.03717,54,285,25759.00,""
2010-08-18 13:54:23,2010-08-18 13:54:23,40.27383,-110.04250,63,288,25939.00,""
2010-08-18 13:54:36,2010-08-18 13:54:36,40.27417,-110.04500,54,280,26023.00,""
2010-08-18 13:54:50,2010-08-18 13:54:50,40.27467,-110.04700,43,287,26107.00,""
2010-08-18 13:55:03,2010-08-18 13:55:03,40.27500,-110.04883,39,299,26191.00,""
2010-08-18 13:55:16,2010-08-18 13:55:16,40.27533,-110.05050,35,288,26280.00,""
2010-08-18 13:55:29,2010-08-18 13:55:29,40.27567,-110.05217,31,291,26372.00,""
2010-08-18 13:55:43,2010-08-18 13:55:43,40.27550,-110.05350,31,279,26447.00,""
2010-08-18 13:55:56,2010-08-18 13:55:56,40.27533,-110.05500,33,259,26530.00,""
2010-08-18 13:56:09,2010-08-18 13:56:09,40.27500,-110.05683,37,249,26624.00,""
2010-08-18 13:56:22,2010-08-18 13:56:22,40.27483,-110.05867,43,252,26704.00,""
2010-08-18 13:56:35,2010-08-18 13:56:35,40.27450,-110.06067,37,246,26794.00,""
2010-08-18 13:56:49,2010-08-18 13:56:49,40.27433,-110.06250,44,252,26885.00,""
2010-08-18 13:57:02,2010-08-18 13:57:02,40.27417,-110.06433,44,262,26971.00,""
2010-08-18 13:57:15,2010-08-18 13:57:15,40.27450,-110.06633,43,297,26904.00,""
2010-08-18 13:57:29,2010-08-18 13:57:29,40.27450,-110.06833,41,264,26499.00,""
2010-08-18 13:57:41,2010-08-18 13:57:41,40.27467,-110.07017,67,285,26126.00,""
2010-08-18 13:57:55,2010-08-18 13:57:55,40.27500,-110.07217,37,267,25749.00,""
2010-08-18 13:58:08,2010-08-18 13:58:08,40.27500,-110.07433,54,269,25387.00,""
2010-08-18 13:58:21,2010-08-18 13:58:21,40.27467,-110.07583,46,249,25040.00,""
2010-08-18 13:58:34,2010-08-18 13:58:34,40.27433,-110.07767,46,268,24710.00,""
2010-08-18 13:58:48,2010-08-18 13:58:48,40.27417,-110.07950,48,273,24378.00,""
2010-08-18 13:59:40,2010-08-18 13:59:40,40.27383,-110.08633,37,264,23136.00,""
2010-08-18 13:59:54,2010-08-18 13:59:54,40.27383,-110.08700,13,309,22851.00,""
2010-08-18 14:00:07,2010-08-18 14:00:07,40.27317,-110.08800,59,210,22564.00,""
2010-08-18 14:00:33,2010-08-18 14:00:33,40.27283,-110.08933,17,265,22026.00,""
2010-08-18 14:00:47,2010-08-18 14:00:47,40.27267,-110.08983,56,275,21767.00,""
2010-08-18 14:01:00,2010-08-18 14:01:00,40.27250,-110.09083,43,238,21531.00,""
2010-08-18 14:01:13,2010-08-18 14:01:13,40.27233,-110.09133,48,218,21275.00,""
2010-08-18 14:01:26,2010-08-18 14:01:26,40.27233,-110.09183,9,167,21020.00,""
2010-08-18 14:01:39,2010-08-18 14:01:39,40.27300,-110.09183,46,1,20790.00,""
2010-08-18 14:01:53,2010-08-18 14:01:53,40.27333,-110.09200,15,321,20565.00,""
2010-08-18 14:02:06,2010-08-18 14:02:06,40.27417,-110.09250,6,314,20330.00,""
2010-08-18 14:02:19,2010-08-18 14:02:19,40.27433,-110.09383,57,254,20122.00,""
2010-08-18 14:02:32,2010-08-18 14:02:32,40.27467,-110.09433,22,106,19913.00,""
2010-08-18 14:02:46,2010-08-18 14:02:46,40.27550,-110.09500,13,334,19714.00,""
2010-08-18 14:02:59,2010-08-18 14:02:59,40.27583,-110.09567,26,214,19530.00,""
2010-08-18 14:03:12,2010-08-18 14:03:12,40.27567,-110.09650,22,252,19316.00,""
2010-08-18 14:03:25,2010-08-18 14:03:25,40.27500,-110.09667,43,165,19121.00,""
2010-08-18 14:03:38,2010-08-18 14:03:38,40.27433,-110.09617,43,102,18939.00,""
2010-08-18 14:03:52,2010-08-18 14:03:52,40.27400,-110.09567,20,107,18761.00,""
2010-08-18 14:04:05,2010-08-18 14:04:05,40.27400,-110.09517,19,51,18570.00,""
2010-08-18 14:04:18,2010-08-18 14:04:18,40.27417,-110.09533,24,122,18390.00,""
2010-08-18 14:04:31,2010-08-18 14:04:31,40.27367,-110.09517,22,244,18206.00,""
2010-08-18 14:04:45,2010-08-18 14:04:45,40.27317,-110.09450,37,129,18027.00,""
2010-08-18 14:04:58,2010-08-18 14:04:58,40.27233,-110.09367,57,130,17848.00,""
2010-08-18 14:05:11,2010-08-18 14:05:11,40.27150,-110.09250,41,148,17654.00,""
2010-08-18 14:05:24,2010-08-18 14:05:24,40.27100,-110.09133,6,105,17502.00,""
2010-08-18 14:05:38,2010-08-18 14:05:38,40.27150,-110.09017,0,75,17359.00,""
2010-08-18 14:05:51,2010-08-18 14:05:51,40.27183,-110.08950,17,39,17199.00,""
2010-08-18 14:06:04,2010-08-18 14:06:04,40.27250,-110.08833,15,79,17053.00,""
2010-08-18 14:06:17,2010-08-18 14:06:17,40.27267,-110.08800,26,162,16923.00,""
2010-08-18 14:06:30,2010-08-18 14:06:30,40.27267,-110.08733,26,96,16782.00,""
2010-08-18 14:06:44,2010-08-18 14:06:44,40.27250,-110.08633,33,99,16638.00,""
2010-08-18 14:06:57,2010-08-18 14:06:57,40.27250,-110.08467,46,77,16490.00,""
2010-08-18 14:07:10,2010-08-18 14:07:10,40.27367,-110.08267,44,34,16355.00,""
2010-08-18 14:07:24,2010-08-18 14:07:24,40.27500,-110.08067,48,41,16223.00,""
2010-08-18 14:07:37,2010-08-18 14:07:37,40.27617,-110.07867,59,73,16104.00,""
2010-08-18 14:07:50,2010-08-18 14:07:50,40.27667,-110.07633,37,53,15981.00,""
2010-08-18 14:08:03,2010-08-18 14:08:03,40.27767,-110.07350,100,75,15858.00,""
2010-08-18 14:08:16,2010-08-18 14:08:16,40.27850,-110.07083,41,52,15741.00,""
2010-08-18 14:08:29,2010-08-18 14:08:29,40.27933,-110.06850,43,71,15621.00,""
2010-08-18 14:08:43,2010-08-18 14:08:43,40.27967,-110.06617,85,82,15506.00,""
2010-08-18 14:08:56,2010-08-18 14:08:56,40.27983,-110.06317,80,80,15385.00,""
2010-08-18 14:09:09,2010-08-18 14:09:09,40.28000,-110.05950,102,85,15251.00,""
2010-08-18 14:09:22,2010-08-18 14:09:22,40.28067,-110.05667,69,76,15133.00,""
2010-08-18 14:09:36,2010-08-18 14:09:36,40.28117,-110.05300,107,86,15019.00,""
2010-08-18 14:09:50,2010-08-18 14:09:50,40.28183,-110.04917,115,79,14912.00,""
2010-08-18 14:10:02,2010-08-18 14:10:02,40.28300,-110.04567,67,63,14795.00,""
2010-08-18 14:10:15,2010-08-18 14:10:15,40.28367,-110.04217,74,80,14702.00,""
2010-08-18 14:10:28,2010-08-18 14:10:28,40.28450,-110.03833,126,79,14599.00,""
2010-08-18 14:10:42,2010-08-18 14:10:42,40.28533,-110.03500,91,82,14501.00,""
2010-08-18 14:10:55,2010-08-18 14:10:55,40.28583,-110.03100,111,81,14378.00,""
2010-08-18 14:11:08,2010-08-18 14:11:08,40.28683,-110.02667,111,76,14271.00,""
2010-08-18 14:11:21,2010-08-18 14:11:21,40.28717,-110.02300,113,88,14162.00,""
2010-08-18 14:11:35,2010-08-18 14:11:35,40.28750,-110.01883,104,77,14034.00,""
2010-08-18 14:11:48,2010-08-18 14:11:48,40.28800,-110.01450,115,79,13930.00,""
2010-08-18 14:12:01,2010-08-18 14:12:01,40.28867,-110.00950,91,87,13821.00,""
2010-08-18 14:12:14,2010-08-18 14:12:14,40.28950,-110.00467,124,74,13754.00,""
2010-08-18 14:12:27,2010-08-18 14:12:27,40.29033,-109.99917,143,87,13643.00,""
2010-08-18 14:12:41,2010-08-18 14:12:41,40.29100,-109.99450,148,87,13542.00,""
2010-08-18 14:12:54,2010-08-18 14:12:54,40.29150,-109.98917,135,79,13448.00,""
2010-08-18 14:13:07,2010-08-18 14:13:07,40.29233,-109.98350,106,84,13364.00,""
2010-08-18 14:13:20,2010-08-18 14:13:20,40.29333,-109.97817,122,72,13268.00,""
2010-08-18 14:13:33,2010-08-18 14:13:33,40.29417,-109.97350,113,72,13189.00,""
2010-08-18 14:13:47,2010-08-18 14:13:47,40.29550,-109.96867,143,71,13100.00,""
2010-08-18 14:14:01,2010-08-18 14:14:01,40.29667,-109.96217,148,76,13009.00,""
2010-08-18 14:14:13,2010-08-18 14:14:13,40.29800,-109.95667,124,69,12904.00,""
2010-08-18 14:14:26,2010-08-18 14:14:26,40.29867,-109.95133,115,82,12816.00,""
2010-08-18 14:14:40,2010-08-18 14:14:40,40.29967,-109.94550,131,82,12727.00,""
2010-08-18 14:14:53,2010-08-18 14:14:53,40.30083,-109.93933,154,70,12644.00,""
2010-08-18 14:15:06,2010-08-18 14:15:06,40.30200,-109.93217,152,78,12564.00,""
2010-08-18 14:15:19,2010-08-18 14:15:19,40.30350,-109.92617,161,75,12497.00,""
2010-08-18 14:15:33,2010-08-18 14:15:33,40.30483,-109.91967,131,75,12405.00,""
2010-08-18 14:15:46,2010-08-18 14:15:46,40.30633,-109.91367,126,70,12300.00,""
2010-08-18 14:15:59,2010-08-18 14:15:59,40.30750,-109.90767,146,67,12186.00,""
2010-08-18 14:16:12,2010-08-18 14:16:12,40.30883,-109.90233,146,76,12132.00,""
2010-08-18 14:16:25,2010-08-18 14:16:25,40.31033,-109.89700,115,65,12060.00,""
2010-08-18 14:16:39,2010-08-18 14:16:39,40.31167,-109.89150,135,76,11966.00,""
2010-08-18 14:16:52,2010-08-18 14:16:52,40.31283,-109.88550,150,75,11856.00,""
2010-08-18 14:17:05,2010-08-18 14:17:05,40.31400,-109.87933,106,72,11753.00,""
2010-08-18 14:17:18,2010-08-18 14:17:18,40.31650,-109.87400,150,63,11755.00,""
2010-08-18 14:17:31,2010-08-18 14:17:31,40.31767,-109.86867,113,73,11651.00,""
2010-08-18 14:17:45,2010-08-18 14:17:45,40.31900,-109.86400,111,68,11565.00,""
2010-08-18 14:17:58,2010-08-18 14:17:58,40.32033,-109.85933,131,64,11479.00,""
2010-08-18 14:18:12,2010-08-18 14:18:12,40.32250,-109.85383,141,70,11391.00,""
2010-08-18 14:18:24,2010-08-18 14:18:24,40.32350,-109.84950,113,67,11319.00,""
2010-08-18 14:18:38,2010-08-18 14:18:38,40.32583,-109.84483,104,61,11253.00,""
2010-08-18 14:18:51,2010-08-18 14:18:51,40.32767,-109.83983,131,68,11172.00,""
2010-08-18 14:19:04,2010-08-18 14:19:04,40.32883,-109.83467,126,71,11104.00,""
2010-08-18 14:19:18,2010-08-18 14:19:18,40.33000,-109.83083,96,63,11030.00,""
2010-08-18 14:19:31,2010-08-18 14:19:31,40.33183,-109.82683,115,56,10948.00,""
2010-08-18 14:19:44,2010-08-18 14:19:44,40.33367,-109.82200,124,68,10878.00,""
2010-08-18 14:19:57,2010-08-18 14:19:57,40.33550,-109.81817,104,53,10824.00,""
2010-08-18 14:20:10,2010-08-18 14:20:10,40.33700,-109.81383,100,69,10748.00,""
2010-08-18 14:20:24,2010-08-18 14:20:24,40.33833,-109.81050,87,66,10662.00,""
2010-08-18 14:20:37,2010-08-18 14:20:37,40.33933,-109.80733,85,70,10597.00,""
2010-08-18 14:20:50,2010-08-18 14:20:50,40.33983,-109.80333,81,80,10530.00,""
2010-08-18 14:21:04,2010-08-18 14:21:04,40.34083,-109.79917,111,77,10455.00,""
2010-08-18 14:21:16,2010-08-18 14:21:16,40.34167,-109.79583,91,65,10395.00,""
2010-08-18 14:21:30,2010-08-18 14:21:30,40.34217,-109.79267,76,87,10327.00,""
2010-08-18 14:21:43,2010-08-18 14:21:43,40.34233,-109.78933,72,77,10259.00,""
2010-08-18 14:21:56,2010-08-18 14:21:56,40.34317,-109.78550,87,85,10179.00,""
2010-08-18 14:22:09,2010-08-18 14:22:09,40.34317,-109.78183,69,86,10126.00,""
2010-08-18 14:22:23,2010-08-18 14:22:23,40.34433,-109.77833,93,67,10051.00,""
2010-08-18 14:22:36,2010-08-18 14:22:36,40.34533,-109.77483,96,66,10016.00,""
2010-08-18 14:22:49,2010-08-18 14:22:49,40.34650,-109.77067,106,70,9964.00,""
2010-08-18 14:23:02,2010-08-18 14:23:02,40.34717,-109.76717,78,71,9847.00,""
2010-08-18 14:23:15,2010-08-18 14:23:15,40.34817,-109.76367,85,68,9776.00,""
2010-08-18 14:23:29,2010-08-18 14:23:29,40.34917,-109.76017,100,70,9720.00,""
2010-08-18 14:23:42,2010-08-18 14:23:42,40.34917,-109.75633,78,91,9636.00,""
2010-08-18 14:23:55,2010-08-18 14:23:55,40.34933,-109.75300,70,86,9570.00,""
2010-08-18 14:24:08,2010-08-18 14:24:08,40.35000,-109.74917,104,83,9508.00,""
2010-08-18 14:24:22,2010-08-18 14:24:22,40.35000,-109.74517,81,96,9438.00,""
2010-08-18 14:24:35,2010-08-18 14:24:35,40.35050,-109.74200,94,72,9384.00,""
2010-08-18 14:24:48,2010-08-18 14:24:48,40.35017,-109.73750,89,95,9300.00,""
2010-08-18 14:25:01,2010-08-18 14:25:01,40.35000,-109.73467,57,93,9235.00,""
2010-08-18 14:25:14,2010-08-18 14:25:14,40.34967,-109.73217,54,100,9163.00,""
2010-08-18 14:25:28,2010-08-18 14:25:28,40.35000,-109.72933,69,80,9089.00,""
2010-08-18 14:25:41,2010-08-18 14:25:41,40.35017,-109.72617,76,92,9027.00,""
2010-08-18 14:25:54,2010-08-18 14:25:54,40.34983,-109.72333,54,105,8967.00,""
2010-08-18 14:26:07,2010-08-18 14:26:07,40.34933,-109.72067,70,101,8908.00,""
2010-08-18 14:26:21,2010-08-18 14:26:21,40.34983,-109.71817,59,72,8861.00,""
2010-08-18 14:26:34,2010-08-18 14:26:34,40.35033,-109.71583,39,66,8801.00,""
2010-08-18 14:26:47,2010-08-18 14:26:47,40.35117,-109.71383,63,65,8739.00,""
2010-08-18 14:27:00,2010-08-18 14:27:00,40.35117,-109.71167,39,88,8661.00,""
2010-08-18 14:27:13,2010-08-18 14:27:13,40.35117,-109.70983,48,92,8597.00,""
2010-08-18 14:27:27,2010-08-18 14:27:27,40.35133,-109.70833,35,77,8540.00,""
2010-08-18 14:27:41,2010-08-18 14:27:41,40.35183,-109.70700,52,51,8478.00,""
2010-08-18 14:27:53,2010-08-18 14:27:53,40.35217,-109.70433,63,79,8400.00,""
2010-08-18 14:28:07,2010-08-18 14:28:07,40.35267,-109.70167,61,72,8341.00,""
2010-08-18 14:28:19,2010-08-18 14:28:19,40.35317,-109.69933,63,73,8285.00,""
2010-08-18 14:28:33,2010-08-18 14:28:33,40.35350,-109.69733,35,65,8234.00,""
2010-08-18 14:28:49,2010-08-18 14:28:49,40.35433,-109.69550,54,53,8164.00,""
2010-08-18 14:28:59,2010-08-18 14:28:59,40.35467,-109.69367,30,74,8120.00,""
2010-08-18 14:29:13,2010-08-18 14:29:13,40.35517,-109.69167,56,84,8047.00,""
2010-08-18 14:29:26,2010-08-18 14:29:26,40.35567,-109.69000,61,62,7960.00,""
2010-08-18 14:29:39,2010-08-18 14:29:39,40.35600,-109.68783,35,79,7915.00,""
2010-08-18 14:29:52,2010-08-18 14:29:52,40.35700,-109.68617,57,53,7840.00,""
2010-08-18 14:30:05,2010-08-18 14:30:05,40.35800,-109.68383,63,69,7760.00,""
2010-08-18 14:30:19,2010-08-18 14:30:19,40.35933,-109.68167,59,45,7707.00,""
2010-08-18 14:30:32,2010-08-18 14:30:32,40.36067,-109.68000,52,40,7642.00,""
2010-08-18 14:30:46,2010-08-18 14:30:46,40.36200,-109.67800,63,50,7567.00,""
2010-08-18 14:30:58,2010-08-18 14:30:58,40.36333,-109.67600,65,52,7511.00,""
2010-08-18 14:31:12,2010-08-18 14:31:12,40.36450,-109.67350,67,68,7468.00,""
2010-08-18 14:31:25,2010-08-18 14:31:25,40.36517,-109.67150,50,50,7405.00,""
2010-08-18 14:31:38,2010-08-18 14:31:38,40.36650,-109.66933,69,58,7343.00,""
2010-08-18 14:31:51,2010-08-18 14:31:51,40.36700,-109.66700,33,76,7265.00,""
2010-08-18 14:32:05,2010-08-18 14:32:05,40.36783,-109.66567,43,47,7193.00,""
2010-08-18 14:32:18,2010-08-18 14:32:18,40.36867,-109.66433,46,45,7124.00,""
2010-08-18 14:32:31,2010-08-18 14:32:31,40.37000,-109.66250,63,47,7050.00,""
2010-08-18 14:32:44,2010-08-18 14:32:44,40.37150,-109.66050,74,49,6991.00,""
2010-08-18 14:32:57,2010-08-18 14:32:57,40.37200,-109.65833,56,70,6931.00,""
2010-08-18 14:33:11,2010-08-18 14:33:11,40.37250,-109.65633,39,72,6871.00,""
2010-08-18 14:33:24,2010-08-18 14:33:24,40.37367,-109.65467,52,59,6811.00,""
2010-08-18 14:33:37,2010-08-18 14:33:37,40.37450,-109.65317,48,72,6767.00,""
2010-08-18 14:33:50,2010-08-18 14:33:50,40.37533,-109.65150,52,47,6709.00,""
2010-08-18 14:34:03,2010-08-18 14:34:03,40.37633,-109.64933,61,65,6645.00,""
2010-08-18 14:34:16,2010-08-18 14:34:16,40.37683,-109.64700,56,71,6590.00,""
2010-08-18 14:34:30,2010-08-18 14:34:30,40.37717,-109.64500,35,80,6541.00,""
2010-08-18 14:34:43,2010-08-18 14:34:43,40.37800,-109.64317,57,66,6482.00,""
2010-08-18 14:34:56,2010-08-18 14:34:56,40.37817,-109.64100,50,81,6425.00,""
2010-08-18 14:35:10,2010-08-18 14:35:10,40.37833,-109.63917,31,85,6375.00,""
2010-08-18 14:35:23,2010-08-18 14:35:23,40.37900,-109.63733,50,76,6317.00,""
2010-08-18 14:35:36,2010-08-18 14:35:36,40.37917,-109.63600,37,74,6261.00,""
2010-08-18 14:35:49,2010-08-18 14:35:49,40.38017,-109.63433,54,44,6211.00,""
2010-08-18 14:36:03,2010-08-18 14:36:03,40.38133,-109.63267,54,51,6151.00,""
2010-08-18 14:36:16,2010-08-18 14:36:16,40.38200,-109.63050,52,72,6091.00,""
2010-08-18 14:36:29,2010-08-18 14:36:29,40.38233,-109.62850,50,73,6039.00,""
2010-08-18 14:36:42,2010-08-18 14:36:42,40.38267,-109.62667,31,97,5989.00,""
2010-08-18 14:36:56,2010-08-18 14:36:56,40.38283,-109.62583,15,94,5931.00,""
2010-08-18 14:37:09,2010-08-18 14:37:09,40.38250,-109.62467,33,101,5879.00,""
2010-08-18 14:37:22,2010-08-18 14:37:22,40.38233,-109.62383,31,104,5830.00,""
2010-08-18 14:37:35,2010-08-18 14:37:35,40.38250,-109.62217,43,77,5777.00,""
2010-08-18 14:37:48,2010-08-18 14:37:48,40.38283,-109.62033,43,71,5719.00,""
2010-08-18 14:38:03,2010-08-18 14:38:03,40.38333,-109.61867,46,58,5669.00,""
2010-08-18 14:38:15,2010-08-18 14:38:15,40.38400,-109.61683,48,66,5613.00,""
2010-08-18 14:38:28,2010-08-18 14:38:28,40.38500,-109.61533,43,38,5553.00,""
2010-08-18 14:38:41,2010-08-18 14:38:41,40.38617,-109.61433,33,28,5493.00,""
2010-08-18 14:38:54,2010-08-18 14:38:54,40.38633,-109.61300,35,80,5423.00,""
2010-08-18 14:39:08,2010-08-18 14:39:08,40.38633,-109.61200,28,85,5364.00,""
2010-08-18 14:39:21,2010-08-18 14:39:21,40.38650,-109.61083,15,88,5301.00,""
2010-08-18 14:39:34,2010-08-18 14:39:34,40.38650,-109.60983,17,88,5241.00,""
2010-08-18 14:39:48,2010-08-18 14:39:48,40.38633,-109.60850,33,91,5181.00,""
2010-08-18 14:40:00,2010-08-18 14:40:00,40.38617,-109.60717,15,111,5122.00,""
2010-08-18 14:40:14,2010-08-18 14:40:14,40.38617,-109.60667,11,82,5066.00,""
2010-08-18 14:40:28,2010-08-18 14:40:28,40.38633,-109.60633,9,93,5013.00,""
2010-08-18 14:40:41,2010-08-18 14:40:41,40.38633,-109.60583,11,94,4961.00,""
2010-08-18 14:40:54,2010-08-18 14:40:54,40.38700,-109.60500,15,38,4915.00,""
2010-08-18 14:41:07,2010-08-18 14:41:07,40.38700,-109.60433,22,107,4867.00,""
2010-08-18 14:41:20,2010-08-18 14:41:20,40.38700,-109.60400,15,41,4801.00,""
2010-08-18 14:41:34,2010-08-18 14:41:34,40.38750,-109.60333,33,54,4734.00,""
2010-08-18 14:41:47,2010-08-18 14:41:47,40.38817,-109.60200,37,54,4689.00,""
2010-08-18 14:42:00,2010-08-18 14:42:00,40.38850,-109.60033,30,94,4638.00,""
2010-08-18 14:42:14,2010-08-18 14:42:14,40.38833,-109.59917,33,99,4576.00,""